Regional Weather Roundup
Issued by NWS

Home | Current Version | Previous Version | Graphics & Text | Print | Product List | Glossary On
Versions: 1 2 3 4 5 6 7 8 9 10 11 12 13 14 15 16 17 18 19 20 21 22 23 24 25 26 27 28 29 30 31 32 33 34 35 36 37 38 39 40 41 42 43 44 45 46 47 48 49 50
000
ASUS43 KFSD 302110
RWRSD

WEATHER ROUNDUP FOR SOUTH DAKOTA
NATIONAL WEATHER SERVICE SIOUX FALLS SD
300 PM CST FRI JAN 30 2015

NOTE: "FAIR" INDICATES FEW OR NO CLOUDS BELOW 12,000 FEET WITH NO
SIGNIFICANT WEATHER AND/OR OBSTRUCTIONS TO VISIBILITY.


SDZ001>005-009-010-012>017-302200-
NORTHWEST AND NORTH CENTRAL SOUTH DAKOTA

CITY           SKY/WX    TMP DP  RH WIND       PRES   REMARKS
BUFFALO          N/A     51  22  31 N13       30.08F
FAITH            N/A     52  22  30 N16       30.11F
MOBRIDGE       SUNNY     44  27  51 NW6       30.10F
$$

SDZ012>016-024>037-041>051-057-063-072>074-302200-
SOUTHWEST AND SOUTH CENTRAL SOUTH DAKOTA

CITY           SKY/WX    TMP DP  RH WIND       PRES   REMARKS
RAPID CTY ARPT SUNNY     52  24  33 N16       30.13S
PIERRE         SUNNY     46  24  42 NW6       30.13S
CUSTER         MOSUNNY   47  17  30 SE8       30.12S
ELLSWORTH AFB  SUNNY     51  25  36 N18       30.13S
PHILIP         SUNNY     54  23  30 VRB7      30.12F
PINE RIDGE     PTSUNNY   50  25  37 NW6       30.13R
WINNER         FAIR      55  25  31 SW16G26   30.12F
$$

SDZ004>011-016>023-039-040-302200-
NORTHEAST SOUTH DAKOTA

CITY           SKY/WX    TMP DP  RH WIND       PRES   REMARKS
ABERDEEN       SUNNY     39  28  64 S14       30.15F
WATERTOWN      SUNNY     37  28  70 S21       30.15F
SISSETON         N/A     39  28  64 SW15      30.14F
$$

SDZ017-020-022-023-036>040-048>070-302200-
SOUTHEAST SOUTH DAKOTA

CITY           SKY/WX    TMP DP  RH WIND       PRES   REMARKS
SIOUX FALLS    MOSUNNY   37  27  67 S21       30.23F
HURON          SUNNY     44  29  55 S8        30.17F
CHAMBERLAIN    SUNNY     54  27  35 SW10      30.13F
MITCHELL       SUNNY     46  29  51 S12       30.18F
YANKTON        SUNNY     45  27  49 S16       30.24F
$$

ABBREVIATIONS USED IN REMARKS
   TC - TEMPERATURE IN CELSIUS
  WCI - WIND CHILL INDEX
   HX - HEAT INDEX
  VSB - VISIBILITY




USA.gov is the U.S. government's official web portal to all federal, state and local government web resources and services.